Location: Blankensee
(53.5126°N, 14.3055°E)
Time: 18:56:54
(UTC+00:00)

Meteor 1-24 Rocket - Pass Details

Date: 08 August 2020
Orbit: 789 x 928 km, 81.3° (Epoch: 20 September)

Event Time Altitude Azimuth Distance (km) Brightness Sun altitude
Rises 01:46:14 0° 342° (NNW) 3,415 7.4 -12.7°
Reaches altitude 10° 01:48:47 10° 337° (NNW) 2,455 6.5 -12.4°
Maximum altitude 01:53:58 43° 267° (W) 1,131 4.1 -11.9°
Enters shadow 01:58:24 13° 200° (SSW) 2,155 5.3 -11.5°
